Satellite-Ground Cal/Val Region Overpasses Predictions

Prediction of Satellite NPP Overpassing Cal/Val Region: PacNW

Region Location: (Latitude: 10.00, Longitude: 139.50) to (Latitude: 22.70, Longitude: 165.60).

Table of predicted overpasses for the next 14.0 days since TLE Epoch: 5/28/2022
Interval Starting Time Starting Location Ending Time Ending Location
1 05/28/2022 02:26:22 ( 10.67, 163.07) 05/28/2022 02:29:46 ( 22.65, 160.22)
2 05/28/2022 14:58:04 ( 22.65, 160.45) 05/28/2022 15:01:39 ( 10.03, 157.45)
3 05/29/2022 02:10:01 ( 20.15, 165.60) 05/29/2022 02:10:44 ( 22.68, 164.97)
4 05/29/2022 03:48:38 ( 10.00, 142.61) 05/29/2022 03:52:14 ( 22.69, 139.59)
5 05/29/2022 14:39:01 ( 22.68, 165.22) 05/29/2022 14:42:37 ( 10.00, 162.21)
6 05/29/2022 16:20:31 ( 22.67, 139.85) 05/29/2022 16:20:54 ( 21.32, 139.51)
7 05/30/2022 03:29:35 ( 10.04, 147.37) 05/30/2022 03:33:10 ( 22.66, 144.36)
8 05/30/2022 16:01:28 ( 22.64, 144.60) 05/30/2022 16:05:03 ( 10.02, 141.60)
9 05/31/2022 03:10:32 ( 10.01, 152.14) 05/31/2022 03:14:08 ( 22.69, 149.12)
10 05/31/2022 15:42:25 ( 22.67, 149.37) 05/31/2022 15:46:00 ( 10.05, 146.37)
11 06/01/2022 02:51:30 ( 10.04, 156.89) 06/01/2022 02:55:05 ( 22.66, 153.89)
12 06/01/2022 15:23:21 ( 22.70, 154.14) 06/01/2022 15:26:57 ( 10.02, 151.12)
13 06/02/2022 02:32:26 ( 10.01, 161.66) 06/02/2022 02:36:02 ( 22.70, 158.64)
14 06/02/2022 15:04:19 ( 22.66, 158.90) 06/02/2022 15:07:54 ( 10.04, 155.89)
15 06/03/2022 02:14:25 ( 13.63, 165.59) 06/03/2022 02:16:59 ( 22.67, 163.41)
16 06/03/2022 03:54:54 ( 10.06, 141.04) 06/03/2022 03:56:46 ( 16.64, 139.51)
17 06/03/2022 14:45:15 ( 22.69, 163.66) 06/03/2022 14:48:51 ( 10.01, 160.65)
18 06/04/2022 03:35:50 ( 10.03, 145.81) 06/04/2022 03:39:25 ( 22.66, 142.80)
19 06/04/2022 14:29:35 ( 10.80, 165.59) 06/04/2022 14:29:48 ( 10.04, 165.42)
20 06/04/2022 16:07:43 ( 22.64, 143.04) 06/04/2022 16:11:18 ( 10.03, 140.04)
21 06/05/2022 03:16:47 ( 10.01, 150.58) 06/05/2022 03:20:23 ( 22.69, 147.56)
22 06/05/2022 15:48:39 ( 22.67, 147.81) 06/05/2022 15:52:14 ( 10.05, 144.81)
23 06/06/2022 02:57:44 ( 10.05, 155.33) 06/06/2022 03:01:19 ( 22.67, 152.33)
24 06/06/2022 15:29:36 ( 22.69, 152.58) 06/06/2022 15:33:12 ( 10.01, 149.56)
25 06/07/2022 02:38:41 ( 10.02, 160.10) 06/07/2022 02:42:16 ( 22.65, 157.10)
26 06/07/2022 15:10:33 ( 22.66, 157.33) 06/07/2022 15:14:08 ( 10.04, 154.33)
27 06/08/2022 02:19:37 ( 10.00, 164.87) 06/08/2022 02:23:13 ( 22.68, 161.85)
28 06/08/2022 14:51:30 ( 22.68, 162.10) 06/08/2022 14:55:06 ( 10.00, 159.09)
29 06/09/2022 03:42:05 ( 10.05, 144.25) 06/09/2022 03:45:40 ( 22.67, 141.24)
30 06/09/2022 14:33:56 ( 17.48, 165.59) 06/09/2022 14:36:03 ( 10.02, 163.85)
31 06/09/2022 16:13:57 ( 22.69, 141.49) 06/09/2022 16:16:17 ( 14.48, 139.51)
32 06/10/2022 03:23:01 ( 10.03, 149.01) 06/10/2022 03:26:36 ( 22.65, 146.01)
